Flag Weather past 2 weeks in North Bay, Ontario, Canada

Now
5 °F

Passing clouds.


Feels Like: -6 °F
Forecast: 10 / 16 °F
Wind: 6 mph from North

Location: North Bay

Current Time: Nov 28, 2014 at 7:53:10 AM

Latest Report: Nov 28, 2014 at 7:00 AM


Visibility: 15 mi

Pressure: 30.22 "Hg

Humidity: 92%

Dew point: 3 °F

Location of North BayLocation

Historic Weather in North Bay — Graph

°F

North Bay temperature yesterday

Maximum temperature yesterday: 21 °F (at 2:00 PM)
Minimum temperature yesterday: 14 °F (at 8:00 PM)
Average temperature yesterday: 17 °F

Past Weeks' High & Low Weather Summary

 TemperatureHumidityPressure
High52 °F (Nov 22, 8:00 PM)100% (Nov 14, 12:00 AM)30.33 "Hg (Nov 14, 12:00 AM)
Low-6 °F (Nov 21, 6:00 AM)55% (Nov 13, 3:00 PM)28.99 "Hg (Nov 24, 10:00 AM)
Average24 °F91%29.85 "Hg
* Reported Nov 13 6:00 AM — Nov 28 6:03 AM, North Bay, Weather by CustomWeather, © 2014

Note: Actual official high and low records may vary slightly from our data, if they occured in-between our weather recording intervals... More about our weather records

Advertising

North Bay weather history for previous 24 hours

 ConditionsComfort  
Time TempWeatherWind HumidityBarometerVisibility
6:03 AM
Nov 28
7 °FLight snow. Mostly cloudy.9 mph85%30.21 "Hg9 mi
5:00 AM7 °FPassing clouds.8 mph92%30.19 "Hg9 mi
4:46 AM7 °FPartly cloudy.8 mph92%30.19 "Hg9 mi
4:00 AM9 °FLight snow. Mostly cloudy.8 mph92%30.17 "Hg9 mi
3:00 AM10 °FLight snow. Mostly cloudy.7 mph92%30.17 "Hg7 mi
2:00 AM10 °FPassing clouds.7 mph92%30.16 "Hg9 mi
1:48 AM10 °FPassing clouds.7 mph92%30.15 "Hg9 mi
1:00 AM10 °FLight snow. Passing clouds.7 mph92%30.14 "Hg9 mi
12:00 AM12 °FClear.6 mph92%30.15 "Hg9 mi
11:00 PM
Nov 27
14 °FLight snow. Passing clouds.6 mph85%30.14 "Hg9 mi
10:00 PM14 °FLight snow. Passing clouds.6 mph92%30.14 "Hg10 mi
9:00 PM14 °FLight snow. Passing clouds.6 mph100%30.14 "Hg6 mi
8:00 PM14 °FLight snow. Passing clouds.7 mph100%30.14 "Hg10 mi
7:00 PM16 °FLight snow. Passing clouds.5 mph93%30.13 "Hg10 mi
6:00 PM18 °FSnow flurries. Overcast.5 mph93%30.13 "Hg6 mi
5:00 PM19 °FSnow flurries. Overcast.5 mph86%30.12 "Hg3 mi
4:00 PM19 °FSnow flurries. Mostly cloudy.5 mph86%30.12 "Hg15 mi
3:00 PM21 °FSnow flurries. Mostly cloudy.6 mph80%30.10 "Hg15 mi
2:00 PM21 °FSnow flurries. Partly sunny.7 mph80%30.09 "Hg15 mi
1:00 PM19 °FMostly cloudy.5 mph79%30.10 "Hg15 mi
12:48 PM19 °FLight snow. Mostly cloudy.5 mph86%30.09 "Hg15 mi
12:00 PM19 °FMostly cloudy.6 mph79%30.11 "Hg15 mi
11:00 AM19 °FMostly cloudy.7 mph79%30.12 "Hg15 mi
10:00 AM18 °FMostly cloudy.7 mph86%30.12 "Hg15 mi
9:00 AM18 °FMostly cloudy.7 mph86%30.12 "Hg15 mi
8:00 AM16 °FBroken clouds.3 mph93%30.12 "Hg7 mi
7:00 AM16 °FLight snow. Overcast.2 mph93%30.12 "Hg10 mi
Weather by CustomWeather, © 2014

See weather overviewHow to use our weather pages